Volver al catálogo

SCOUT G-1 DEB

ActivoPO
NORAD 29207·DEBRIS·🇺🇸 United States

Lanzado Sep 16, 1987 desde Vandenberg Space Force Base

Loading…

Próximos Pases (próximas 24 horas)

TLE

EnvejeciendoSource: Space-Track

Época: Sep 5, 2026, 05:44 UTC

1 29207U 87080K   26248.23917359  .00001296  00000-0  87043-3 0  9997
2 29207  90.2993  51.5337 0104744  56.0166 305.0911 13.97670255984513

Sigue SCOUT G-1 DEB en tiempo real con AllMySat

Download on the App Store